Location: Jetmore Oil Field
(38.1181°N, 99.9337°W)
Time: 05:28:22
(UTC+00:00)

STARLINK-2732 - Pass Details

Date: 24 June 2021
Orbit: 546 x 548 km, 53.1° (Epoch: 24 July)

Event Time Altitude Azimuth Distance (km) Brightness Sun altitude
Exits shadow 08:08:07 13° 103° (ESE) 1,635 6.1 -25.3°
Drops below altitude 10° 08:09:04 10° 91° (E) 1,808 6.5 -25.2°
Enters shadow 09:08:10 -67° 230° (SW) 12,334 10.4 -19.6°
Maximum altitude 09:45:48 69° 320° (NW) 584 3.7 -14.9°
